Regional Weather Roundup
Issued by NWS

Home | Current Version | Previous Version | Graphics & Text | Print | Product List | Glossary On
Versions: 1 2 3 4 5 6 7 8 9 10 11 12 13 14 15 16 17 18 19 20 21 22 23 24 25 26
000
ASUS45 KTFX 251410
RWRMT
MONTANA REGIONAL WEATHER ROUNDUP
NATIONAL WEATHER SERVICE GREAT FALLS MT
800 AM MDT WED APR 25 2018

NOTE: "FAIR" INDICATES FEW OR NO CLOUDS BELOW 12000 FEET WITH NO
SIGNIFICANT WEATHER AND/OR OBSTRUCTIONS TO VISIBILITY.

MTZ001>007-043-251500-
WEST OF THE DIVIDE

CITY           SKY/WX    TMP DP  RH WIND       PRES   REMARKS
KALISPELL      FAIR      37  32  82 CALM      30.10S
MISSOULA       FAIR      34  28  79 CALM      30.18R
BUTTE          FAIR      28  22  78 SE5       30.20F
MULLAN PASS    FAIR      43  25  49 SW7       30.15R
ANACONDA         N/A     43  19  39 S12       30.17F
DEER LODGE       N/A     45  21  39 MISG      30.17F
HAMILTON         N/A     36  27  69 MISG      30.16
PLAINS           N/A     35  29  79 CALM      30.12S
RONAN            N/A     39  36  87 CALM      30.12R
$$

MTZ008-052>055-251500-
SOUTHWEST MONTANA

CITY           SKY/WX    TMP DP  RH WIND       PRES   REMARKS
BOZEMAN        FAIR      32  28  85 E7        30.19F WCI  26
DILLON         FAIR      34  26  72 S13       30.22F WCI  25
ENNIS          MOSUNNY   36  21  55 S15G21    30.25F WCI  26
W YELLOWSTONE  FAIR      19  18  93 CALM      30.30F
THREE FORKS      N/A     30  28  92 CALM      30.17S
TWIN BRIDGES     N/A     33  23  67 SE5       30.19F
$$

MTZ009-010-012-014-046-048-049-054-251500-
EAST SLOPES AND CENTRAL MONTANA

CITY           SKY/WX    TMP DP  RH WIND       PRES   REMARKS
CUT BANK       FAIR      49  22  34 W12       30.03S
GREAT FALLS    FAIR      49  23  36 S17G25    30.06R
MALMSTROM AFB  FAIR      51  21  30 W15       30.06F
HELENA         FAIR      37  29  72 W5        30.16S
AUGUSTA        PTSUNNY   43  24  48 SE9       30.07R
BOWMANS CRNR   FAIR      44  23  43 S20G26    30.07R
CHOTEAU          N/A     48  19  32 SW5       30.07R
FAIRFIELD      PTSUNNY   47  23  38 SW17      30.05R
POWER          FAIR      46  22  38 SW14      30.05R
RAYNESFORD     PTSUNNY   56  14  18 S22       30.04F
ULM            PTSUNNY   47  25  42 SW10      30.08R
WHITE SULPHUR    N/A     41  25  52 S18       30.14F
$$

MTZ011-013-016-021-045-047-050-051-251500-
NORTH CENTRAL MONTANA

CITY           SKY/WX    TMP DP  RH WIND       PRES   REMARKS
HAVRE          FAIR      44  29  55 SW12      29.99S
LEWISTOWN      FAIR      38  26  62 E5        30.05F
N BAR RANCH    FAIR      37  18  44 W6        30.07F
CHINOOK          N/A     48  30  49 W6        29.97S
GEYSER         FAIR      54  16  22 W26       30.02F
GRASS RANGE    FAIR      49  16  27 W18       30.00F
STANFORD       FAIR      55  14  19 W22       30.04F
$$

MTZ017>020-022>027-061-062-251500-
NORTHEAST MONTANA

CITY           SKY/WX    TMP DP  RH WIND       PRES   REMARKS
GLASGOW        FAIR      44  35  70 SE5       29.99S
GLENDIVE       FAIR      40  32  73 S15       30.08F
JORDAN           N/A     46  32  58 N5        30.02F
MALTA          SUNNY     39  36  87 CALM      29.97F
SIDNEY         FAIR      42  32  67 S17       30.05F
WOLF POINT     FAIR      47  33  58 SW8       30.01F
PLENTYWOOD       N/A     45  30  57 S6        29.97F
POPLAR           N/A     46  30  53 SW9       30.01F
SCOBEY           N/A     45  29  53 S6        29.95F
$$

MTZ028>42-056>058-251500-
SOUTHCENTRAL AND SOUTHEAST MONTANA

CITY           SKY/WX    TMP DP  RH WIND       PRES   REMARKS
BAKER          FAIR      44  31  60 SW3       30.13F
BILLINGS       PTSUNNY   45  29  53 SW17G26   30.12F
LIVINGSTON     FAIR      37  27  67 W12G22    30.16F WCI  29
MILES CITY     FAIR      40  33  76 S12       30.09F
BIG TIMBER     SUNNY     43  23  45 W18       30.16F
EKALAKA          N/A     45  24  43 S6        30.10F
FORSYTH          N/A     39  30  70 CALM      30.10F
HARLOWTON      PTSUNNY   47  27  46 W15G21    30.11F
LAUREL           N/A     46  27  46 SW21G28   30.14F
ROUNDUP          N/A     41  27  57 S12       30.01
$$

REGIONAL REPORTS...DAKOTAS

CITY           SKY/WX    TMP DP  RH WIND       PRES   REMARKS
WILLISTON      FAIR      45  31  58 S13       30.03F
MINOT          FAIR      49  30  48 SW20G25   30.05F
DICKINSON      FAIR      47  28  47 SW16      30.10F
BEACH          FAIR      43  28  56 SW15      30.12F
CROSBY         FAIR      43  32  65 SW22G31   29.97F
TIOGA          FAIR      41  34  75 SW17      30.03F
WATFORD CITY   FAIR      46  30  53 SW13      30.05F
BISMARCK       FAIR      45  31  58 SW9       30.18F
GRAND FORKS    FAIR      45  35  68 SW13      30.14F
FARGO          FAIR      44  30  57 S13       30.22F
BUFFALO SD       N/A     41  30  65 S9        30.10F
RAPID CITY     FAIR      34  27  75 SE5       30.22F
$$

REGIONAL REPORTS...WYOMING/IDAHO/WASHINGTON

CITY           SKY/WX    TMP DP  RH WIND       PRES   REMARKS
GILLETTE       FAIR      40  27  59 S14       30.17F
SHERIDAN       FAIR      33  27  78 N3        30.15F
BUFFALO WY     FAIR      43  16  33 S3        30.16F
CODY           FAIR      42  19  39 W3        30.22F
YELLOWSTONE LA   N/A     19  14  81 CALM      30.37S
IDAHO FALLS    FAIR      35  31  85 NW8       30.28R WCI  29
SALMON         FAIR      31  26  82 CALM      30.28R
BOISE          FAIR      49  32  52 SE8       30.18R
SPOKANE        PTSUNNY   48  34  58 CALM      30.09R
$$

REGIONAL REPORTS...ALBERTA

CITY           SKY/WX    TMP DP  RH WIND       PRES   REMARKS
CALGARY        MOSUNNY   43  30  61 N18G28    30.15R
CARDSTON         N/A     45  25  45 N15G22      N/A
EDMONTON       PTSUNNY   45  25  45 W10G17    30.08R
FORT MCMURRAY  SUNNY     43  27  52 W6        30.00R
HIGH LEVEL     MOSUNNY   34  25  69 NE2       30.00R
LETHBRIDGE     CLOUDY    48  28  46 N18G30    30.10R
MEDICINE HAT   CLOUDY    48  30  49 N7        29.98R
MILK RIVER       N/A     48  25  40 NW18G25     N/A
ONEFOUR          N/A     41  30  65 NW6         N/A
PEACE RIVER    MOSUNNY   41  27  56 S5        30.10R
PINCHER CREEK  CLOUDY    45  27  49 NW12G18   30.14R
WATERTON GATE    N/A     43  23  45 N18G29      N/A
$$

REGIONAL REPORTS...SASKATCHEWAN

CITY           SKY/WX    TMP DP  RH WIND       PRES   REMARKS
CORONACH         N/A     45  32  61 SW20G25     N/A
CYPRESS HILLS    N/A     46  18  31 NW13G25     N/A
ESTEVAN        CLOUDY    45  30  57 SW21G29   29.95F
MOOSE JAW        N/A     50  28  43 SW17G25     N/A
PRINCE ALBERT  CLOUDY    48  28  46 N17G23    29.89R
REGINA         CLOUDY    48  30  49 SW10      29.85F
ROCKGLEN         N/A     46  28  49 SW20G28     N/A
SASKATOON      CLOUDY    46  32  57 NW9       29.90R
SWIFT CURRENT  PTSUNNY   48  25  40 W21G28    29.86S
VAL MARIE        N/A     39  32  75 SW12        N/A  WCI  32
$$




USA.gov is the U.S. government's official web portal to all federal, state and local government web resources and services.